Location: Hilton Head Island
(32.2163°N, 80.7526°W)
Time: 06:54:17
(UTC-05:00)

Transit 2A - Visible Passes

Search period start: 16 February 2026 00:00
Search period end: 26 February 2026 00:00
Orbit: 589 x 955 km, 66.7° (Epoch: 16 February)

Date Brightness Start Highest point End Pass type
(mag) Time Alt. Az. Time Alt. Az. Time Alt. Az.
20 Feb 8.6 20:48:33 10° N 20:49:12 13° N 20:49:12 13° N visible
21 Feb 8.2 20:12:45 10° N 20:14:14 15° NNE 20:14:14 15° NNE visible
22 Feb 8.0 19:37:21 10° NNE 19:39:21 14° NE 19:39:21 14° NE visible
22 Feb 8.5 21:18:29 10° NNW 21:19:43 17° NNW 21:19:43 17° NNW visible
23 Feb 7.6 20:42:08 10° NNW 20:44:54 28° NNW 20:44:54 28° NNW visible
24 Feb 6.9 20:05:58 10° NNW 20:10:12 37° NNE 20:10:12 37° NNE visible
24 Feb 9.0 21:50:03 10° WNW 21:50:35 12° WNW 21:50:35 12° WNW visible
25 Feb 7.0 19:30:00 10° N 19:34:51 28° NE 19:35:38 27° ENE visible
25 Feb 8.0 21:12:57 10° NW 21:16:01 26° WNW 21:16:01 26° WNW visible
